Location: G�ndlingen
(48.0142°N, 7.6396°E)
Time: 02:38:17
(UTC+00:00)

Cosmos 2221 - Pass Details

Date: 05 July 2020
Orbit: 592 x 616 km, 82.5° (Epoch: 04 August)

Event Time Altitude Azimuth Distance (km) Brightness Sun altitude
Rises 22:30:51 0° 340° (NNW) 2,896 7.7 -17.9°
Reaches altitude 10° 22:33:21 10° 328° (NNW) 1,983 6.3 -18.0°
Maximum altitude 22:36:59 26° 272° (W) 1,213 4.2 -18.2°
Enters shadow 22:39:19 17° 228° (SW) 1,567 4.3 -18.3°
